Regional Weather Roundup
Issued by NWS

Home | Current Version | Previous Version | Text Only | Print | Product List | Glossary On
Versions: 1 2 3 4 5 6 7 8 9 10 11 12 13 14 15 16 17 18 19 20 21 22 23 24 25 26 27 28
000
ASUS45 KCYS 260110
RWRWY

WYOMING REGIONAL WEATHER ROUNDUP
NATIONAL WEATHER SERVICE CHEYENNE WY
700 PM MDT SAT OCT 25 2014

NOTE:  "FAIR" INDICATES FEW OR NO CLOUDS BELOW 12,000 FEET
WITH NO SIGNIFICANT WEATHER AND/OR OBSTRUCTIONS TO VISIBILITY.

WYZ001-260200-
YELLOWSTONE NATIONAL PARK

CITY           SKY/WX    TMP DP  RH WIND       PRES   REMARKS
LK YELLOWSTONE   N/A     48  26  42 VRB5      30.03
W YELLOWSTONE  NOT AVBL

$$
WYZ002>013-054>058-071-098>099-260200-
NORTHERN WYOMING

CITY           SKY/WX    TMP DP  RH WIND       PRES   REMARKS
JACKSON        CLEAR     59  25  27 S9        29.96F
CODY           PTCLDY    61  21  21 W5        29.81
GREYBULL       CLEAR     69  23  17 S8        29.75F
WORLAND        PTCLDY    66  21  18 S14       29.79F
SHERIDAN       PTCLDY    54  38  54 SW9       29.79F
BUFFALO        CLEAR     67  16  14 SW6       29.86F
GILLETTE       CLEAR     60  34  37 S18       29.86F
HULETT         FAIR      59  32  36 SE3       29.90
NEWCASTLE      FAIR      52  32  46 SE8       29.94

$$
WYZ014>020-022>026-101>103-260200-
CENTRAL WYOMING

CITY           SKY/WX    TMP DP  RH WIND       PRES   REMARKS
BIG PINEY      MOCLDY    54  22  28 SW10      30.02F
PINEDALE       PTCLDY    52  23  32 S5        30.03
DUBOIS         FAIR      54  21  28 W8        29.97F
LANDER         MOCLDY    66  20  17 VRB3      29.89F
RIVERTON       MOCLDY    66  19  16 S9        29.91F
CASPER         CLEAR     66  25  21 SW16      29.96F
DOUGLAS        CLEAR     60  19  20 S12       29.97F

$$
WYZ021-027>030-104>119-260200-
SOUTHERN WYOMING

CITY           SKY/WX    TMP DP  RH WIND       PRES   REMARKS
EVANSTON       MOCLDY    59  19  21 SW22G28   30.04F
KEMMERER       MOCLDY    55  21  26 SW5       30.06S
FORT BRIDGER   FAIR      62  21  21 SW10      30.08F
ROCK SPRINGS   MOCLDY    57  30  35 S12       30.04F
DIXON          FAIR      59  28  30 S8        30.14S
RAWLINS        PTCLDY    58  25  28 SW10      30.09F
SARATOGA       FAIR      55  21  26 SW14      30.13S
LARAMIE        CLEAR     52  20  28 S10       30.15R
CHEYENNE       CLEAR     61  22  22 S8        30.10S
TORRINGTON     CLEAR     62  35  36 E10       29.97R
PINE BLUFFS    FAIR      55  32  41 S9        30.05S

$$



USA.gov is the U.S. government's official web portal to all federal, state and local government web resources and services.